KD2RHT-13 Weather Reports


Display with metric or nautical units.
time (UTC)temp
F
wind
direction
speed
MPH
gust
MPH
rain 1hr
in
rain 24hr
in
rain mn
in
humidity
%
barometer
mb
20260901104637 68 159 0.0 0.0 0.00 0.15 0.15 99 1016.2
20260901104132 68 159 0.0 0.0 0.00 0.15 0.15 99 1015.9
20260901103631 68 169 0.0 0.0 0.00 0.15 0.15 99 1015.9
20260901103127 67 164 0.0 0.0 0.00 0.15 0.15 99 1015.9
20260901102622 67 161 0.0 0.0 0.00 0.15 0.15 99 1015.9
20260901102122 67 172 0.0 0.0 0.00 0.15 0.15 99 1015.9
20260901101618 67 160 0.0 0.0 0.00 0.15 0.15 99 1015.9
20260901101117 67 158 0.0 0.0 0.00 0.15 0.15 99 1015.6
20260901100617 67 175 0.0 0.0 0.00 0.15 0.15 99 1015.9
20260901100112 67 160 0.0 0.0 0.00 0.15 0.15 99 1015.9
20260901095610 67 151 0.0 0.0 0.00 0.15 0.15 99 1016.2
20260901095108 67 172 1.0 1.0 0.00 0.15 0.15 99 1015.9
20260901094603 67 162 0.0 0.0 0.00 0.15 0.15 99 1016.2
20260901094102 67 166 0.0 0.0 0.05 0.15 0.15 99 1016.2
20260901093557 67 159 0.0 0.0 0.12 0.15 0.15 99 1016.2
20260901093052 67 154 0.0 0.0 0.07 0.14 0.14 99 1016.6
20260901092548 67 160 0.0 0.0 0.00 0.13 0.13 99 1016.6
20260901092044 67 162 0.0 0.0 0.00 0.13 0.13 99 1016.2
20260901091539 67 158 0.0 0.0 0.00 0.13 0.13 99 1016.2
20260901091040 67 148 0.0 0.0 0.00 0.13 0.13 99 1015.9
20260901090539 67 198 0.0 0.0 0.00 0.13 0.13 99 1016.6
20260901090035 67 166 0.0 0.0 0.00 0.13 0.13 99 1015.9
20260901085530 67 158 0.0 0.0 0.00 0.13 0.13 99 1015.9
20260901085027 67 177 0.0 0.0 0.00 0.13 0.13 99 1015.9
20260901084522 67 168 0.0 0.0 0.00 0.13 0.13 99 1015.9
20260901084019 67 159 0.0 0.0 0.00 0.13 0.13 99 1015.9
20260901083518 67 160 0.0 0.0 0.00 0.13 0.13 99 1015.9
20260901083016 67 160 0.0 0.0 0.00 0.13 0.13 99 1015.9
20260901082511 67 160 0.0 0.0 0.00 0.13 0.13 99 1015.9
20260901082007 67 159 0.0 0.0 0.00 0.13 0.13 99 1015.9
20260901081501 67 166 0.0 0.0 0.00 0.13 0.13 99 1016.2
20260901080956 67 161 0.0 0.0 0.00 0.13 0.13 99 1016.2
20260901080455 67 160 0.0 0.0 0.00 0.13 0.13 99 1016.2
20260901075950 67 160 0.0 0.0 0.00 0.13 0.13 99 1016.2
20260901075446 67 160 0.0 0.0 0.00 0.13 0.13 99 1016.2
20260901074945 67 162 0.0 0.0 0.00 0.13 0.13 99 1016.6
20260901074445 67 160 0.0 0.0 0.00 0.13 0.13 99 1016.6
20260901073940 67 160 0.0 0.0 0.00 0.13 0.13 99 1016.2
20260901073437 67 159 0.0 0.0 0.00 0.13 0.13 99 1016.6
20260901072931 67 162 0.0 0.0 0.00 0.13 0.13 99 1016.6
20260901072426 67 157 0.0 0.0 0.00 0.13 0.13 99 1016.6
20260901071922 67 157 0.0 0.0 0.24 0.13 0.13 99 1016.9
20260901071420 67 164 0.0 0.0 0.38 0.12 0.12 99 1016.6
20260901070919 67 161 0.0 0.0 0.24 0.09 0.09 99 1016.9
20260901070415 67 158 0.0 0.0 0.17 0.06 0.06 99 1016.9
20260901065913 67 158 0.0 0.0 0.19 0.05 0.05 99 1016.9
20260901065409 67 165 0.0 0.0 0.12 0.03 0.03 99 1016.9
20260901064904 67 157 0.0 0.0 0.07 0.01 0.01 99 1016.9
20260901064401 67 164 0.0 0.0 0.00 0.00 0.00 99 1016.9
20260901063858 67 165 0.0 0.0 0.00 0.00 0.00 99 1016.9
20260901063354 67 160 0.0 0.0 0.00 0.00 0.00 99 1017.3
20260901062849 67 160 0.0 0.0 0.00 0.00 0.00 99 1017.3
20260901062346 67 162 0.0 0.0 0.00 0.00 0.00 99 1017.6
20260901061841 67 162 0.0 0.0 0.00 0.00 0.00 99 1016.9
20260901061336 67 159 0.0 0.0 0.00 0.00 0.00 99 1017.3
20260901060831 67 161 0.0 0.0 0.00 0.00 0.00 99 1017.6
20260901060327 67 161 0.0 0.0 0.00 0.00 0.00 99 1017.3
20260901055821 67 149 0.0 1.0 0.00 0.00 0.00 99 1017.6
20260901055318 67 170 0.0 0.0 0.00 0.00 0.00 99 1017.3
20260901054814 67 160 0.0 0.0 0.00 0.00 0.00 99 1017.3
20260901054311 67 160 0.0 1.0 0.00 0.00 0.00 99 1017.6
20260901053801 67 162 0.0 0.0 0.00 0.00 0.00 99 1017.6
20260901053256 67 166 0.0 0.0 0.00 0.00 0.00 99 1017.6
20260901052751 67 160 0.0 0.0 0.00 0.00 0.00 99 1017.6
20260901052247 67 160 0.0 0.0 0.00 0.00 0.00 99 1017.6
20260901051746 67 159 0.0 0.0 0.00 0.00 0.00 99 1017.6
20260901051241 67 162 0.0 0.0 0.00 0.00 0.00 99 1017.9
20260901050736 67 164 0.0 0.0 0.00 0.00 0.00 99 1017.6
20260901050231 67 159 0.0 0.0 0.00 0.00 0.00 99 1017.6
20260901045726 67 162 0.0 0.0 0.00 0.00 0.00 99 1017.9
20260901045221 67 153 0.0 0.0 0.00 0.00 0.00 99 1017.9
20260901044716 67 167 0.0 0.0 0.00 0.00 0.00 99 1017.6
20260901044214 67 161 0.0 0.0 0.00 0.00 0.00 99 1017.6
20260901043708 67 164 0.0 0.0 0.00 0.00 0.00 99 1017.9
20260901043203 67 161 0.0 0.0 0.00 0.00 0.00 99 1017.9
20260901042703 67 161 0.0 0.0 0.00 0.00 0.00 99 1017.9
20260901042157 67 161 0.0 0.0 0.00 0.00 0.00 99 1018.3
20260901041654 67 161 0.0 0.0 0.00 0.00 0.00 99 1017.9
20260901041153 67 155 0.0 0.0 0.00 0.00 0.00 99 1017.9
20260901040648 67 156 0.0 0.0 0.00 0.00 0.00 99 1018.3
20260901040147 67 138 0.0 0.0 0.00 0.00 0.00 99 1018.3
20260901035645 67 160 0.0 0.0 0.00 0.01 0.01 99 1017.9
20260901035144 67 157 0.0 0.0 0.00 0.01 0.01 99 1018.3
20260901034639 68 165 0.0 0.0 0.00 0.01 0.01 99 1018.3
20260901034139 68 162 0.0 0.0 0.00 0.01 0.01 99 1017.9
20260901033638 68 166 0.0 0.0 0.00 0.01 0.01 99 1018.3
20260901033137 68 160 0.0 0.0 0.00 0.01 0.01 99 1018.3
20260901032636 68 160 0.0 0.0 0.00 0.01 0.01 99 1018.3
20260901032131 68 161 0.0 0.0 0.00 0.01 0.01 99 1018.3
20260901031627 68 158 0.0 0.0 0.00 0.01 0.01 99 1018.3
20260901031122 68 158 0.0 0.0 0.00 0.01 0.01 99 1018.3
20260901030617 68 156 0.0 0.0 0.00 0.01 0.01 99 1018.3
20260901030112 68 161 0.0 0.0 0.00 0.01 0.01 99 1018.3
20260901025611 68 166 0.0 0.0 0.00 0.01 0.01 99 1018.3
20260901025106 68 165 0.0 0.0 0.00 0.01 0.01 99 1018.3
20260901024601 68 162 0.0 0.0 0.00 0.01 0.01 99 1018.3
20260901024100 68 164 0.0 0.0 0.00 0.01 0.01 99 1018.3
20260901023559 68 162 0.0 0.0 0.00 0.01 0.01 98 1018.3
20260901023054 68 167 0.0 0.0 0.00 0.01 0.01 99 1018.3
20260901022549 68 164 0.0 0.0 0.00 0.01 0.01 98 1018.3
20260901022044 68 144 0.0 0.0 0.00 0.01 0.01 98 1018.3
20260901021540 68 161 0.0 0.0 0.00 0.01 0.01 98 1018.3
20260901021035 68 56 2.0 2.0 0.00 0.01 0.01 98 1018.3
20260901020530 68 150 0.0 1.0 0.00 0.01 0.01 98 1018.6
20260901020026 68 155 0.0 0.0 0.00 0.01 0.01 98 1018.6
20260901015521 68 158 0.0 0.0 0.00 0.01 0.01 98 1018.3
20260901015020 68 153 0.0 0.0 0.00 0.01 0.01 98 1018.6
20260901014516 68 160 0.0 0.0 0.00 0.01 0.01 98 1018.6
20260901014012 68 147 0.0 0.0 0.00 0.01 0.01 98 1018.6
20260901013508 68 158 0.0 0.0 0.00 0.01 0.01 98 1018.6
20260901013003 68 161 0.0 0.0 0.00 0.01 0.01 98 1018.6
20260901012502 68 157 0.0 0.0 0.00 0.01 0.01 98 1018.9
20260901011958 68 159 0.0 0.0 0.00 0.01 0.01 98 1018.9
20260901011454 68 235 2.0 3.0 0.00 0.01 0.01 98 1018.9
20260901010952 68 157 0.0 0.0 0.00 0.01 0.01 98 1018.9
20260901010447 68 160 0.0 0.0 0.00 0.01 0.01 98 1018.6
20260901005946 68 163 0.0 0.0 0.00 0.01 0.01 98 1018.6
20260901005441 68 152 0.0 0.0 0.00 0.01 0.01 98 1018.6
20260901004936 68 157 0.0 0.0 0.00 0.01 0.01 98 1018.6
20260901004436 68 153 0.0 0.0 0.00 0.01 0.01 98 1018.6
20260901003931 68 161 0.0 0.0 0.00 0.01 0.01 98 1018.6
20260901003426 68 160 0.0 0.0 0.00 0.01 0.01 98 1018.6
20260901002924 68 154 0.0 0.0 0.00 0.01 0.01 98 1018.6
20260901002424 68 150 0.0 0.0 0.00 0.01 0.01 98 1018.6
20260901001919 69 161 0.0 0.0 0.00 0.01 0.01 98 1018.3
20260901001414 69 162 0.0 0.0 0.00 0.01 0.01 98 1018.3
20260901000909 69 160 0.0 0.0 0.00 0.01 0.01 98 1018.3
20260901000405 69 161 0.0 0.0 0.00 0.01 0.01 98 1018.3
20260831235903 69 157 0.0 0.0 0.00 0.01 0.01 98 1018.3
20260831235400 69 158 0.0 0.0 0.00 0.01 0.01 98 1018.6
20260831234859 69 161 0.0 0.0 0.00 0.01 0.01 98 1018.3
20260831234354 69 159 0.0 0.0 0.00 0.01 0.01 98 1018.3
20260831233849 69 161 0.0 0.0 0.00 0.01 0.01 98 1018.3
20260831233344 69 160 0.0 0.0 0.00 0.01 0.01 98 1018.6
20260831232840 69 158 0.0 0.0 0.00 0.01 0.01 98 1018.6
20260831232336 69 160 0.0 0.0 0.00 0.01 0.01 98 1018.6
20260831231832 69 162 0.0 0.0 0.00 0.01 0.01 98 1018.6
20260831231328 69 159 0.0 0.0 0.00 0.01 0.01 97 1018.6
20260831230823 69 162 0.0 0.0 0.00 0.01 0.01 97 1018.6
20260831230318 69 161 0.0 0.0 0.00 0.01 0.01 97 1018.6
20260831225817 69 157 0.0 0.0 0.00 0.01 0.01 97 1018.6
20260831225312 69 198 0.0 0.0 0.00 0.01 0.01 97 1018.6
20260831224808 69 138 0.0 0.0 0.00 0.01 0.01 97 1018.6
20260831224303 69 152 0.0 0.0 0.00 0.01 0.01 97 1018.6
20260831223757 69 158 0.0 0.0 0.00 0.01 0.01 97 1018.6
20260831223254 69 161 0.0 0.0 0.00 0.01 0.01 97 1018.6
20260831222750 69 154 0.0 1.0 0.00 0.01 0.01 97 1018.6
20260831222246 69 207 0.0 1.0 0.00 0.01 0.01 97 1018.9
20260831221741 69 160 0.0 0.0 0.00 0.01 0.01 97 1018.9
20260831221236 69 156 0.0 0.0 0.00 0.01 0.01 97 1018.9
20260831220731 69 151 0.0 1.0 0.00 0.01 0.01 97 1018.9
20260831220227 69 160 0.0 1.0 0.00 0.01 0.01 97 1018.9
20260831215727 69 160 0.0 0.0 0.00 0.01 0.01 97 1018.9
20260831215223 69 170 0.0 0.0 0.00 0.01 0.01 96 1018.9
20260831214719 69 177 2.0 2.0 0.00 0.01 0.01 96 1018.9
20260831214216 69 148 0.0 1.0 0.00 0.01 0.01 96 1018.9
20260831213711 69 167 0.0 0.0 0.00 0.01 0.01 96 1019.3
20260831213208 69 157 1.0 1.0 0.00 0.01 0.01 96 1019.3
20260831212703 69 167 1.0 1.0 0.00 0.01 0.01 96 1018.9
20260831212200 69 184 0.0 1.0 0.00 0.01 0.01 95 1019.3
20260831211658 69 164 1.0 1.0 0.00 0.01 0.01 95 1019.3
20260831211154 69 162 0.0 0.0 0.00 0.01 0.01 95 1019.3
20260831210653 69 157 0.0 0.0 0.00 0.01 0.01 95 1019.6
20260831210150 69 166 0.0 0.0 0.00 0.01 0.01 95 1019.3
20260831205648 69 166 0.0 0.0 0.00 0.01 0.01 95 1019.3
20260831205145 69 159 0.0 0.0 0.00 0.01 0.01 95 1019.6
20260831204645 69 159 0.0 0.0 0.00 0.01 0.01 95 1019.6
20260831204143 69 158 0.0 0.0 0.00 0.01 0.01 95 1019.6
20260831203638 69 164 0.0 0.0 0.00 0.01 0.01 94 1020.0
20260831203137 69 154 0.0 1.0 0.00 0.01 0.01 94 1019.6
20260831202636 69 224 1.0 1.0 0.00 0.01 0.01 94 1020.0
20260831202131 69 343 2.0 2.0 0.00 0.01 0.01 94 1019.3
20260831201630 69 85 2.0 3.0 0.00 0.01 0.01 94 1019.6
20260831201125 69 181 1.0 2.0 0.00 0.01 0.01 94 1019.6
20260831200622 69 158 0.0 0.0 0.00 0.01 0.01 94 1019.6
20260831200121 69 246 2.0 2.0 0.00 0.01 0.01 94 1019.6
20260831195617 69 170 2.0 2.0 0.00 0.01 0.01 93 1019.3
20260831195112 69 158 0.0 0.0 0.00 0.01 0.01 93 1019.3
20260831194607 70 202 0.0 0.0 0.00 0.01 0.01 93 1019.6
20260831194102 69 157 0.0 0.0 0.00 0.01 0.01 93 1019.6
20260831193557 70 160 0.0 0.0 0.00 0.01 0.01 93 1019.6
20260831193057 70 171 1.0 1.0 0.00 0.01 0.01 92 1020.0
20260831192552 70 169 1.0 1.0 0.00 0.01 0.01 92 1020.0
20260831192048 70 141 1.0 1.0 0.00 0.01 0.01 92 1020.0
20260831191543 70 161 0.0 0.0 0.00 0.01 0.01 92 1020.0
20260831191039 71 162 1.0 2.0 0.00 0.01 0.01 92 1020.0
20260831190534 70 163 0.0 0.0 0.00 0.01 0.01 92 1020.0
20260831190033 70 161 0.0 1.0 0.00 0.01 0.01 93 1020.0
20260831185529 70 141 2.0 2.0 0.00 0.01 0.01 93 1020.3
20260831185024 70 157 0.0 1.0 0.00 0.01 0.01 93 1020.0
20260831184518 70 170 2.0 2.0 0.00 0.01 0.01 93 1020.3
20260831184014 70 187 1.0 1.0 0.00 0.01 0.01 93 1020.3
20260831183513 70 160 0.0 1.0 0.00 0.01 0.01 93 1020.3
20260831183013 69 159 0.0 0.0 0.00 0.01 0.01 93 1020.3
20260831182507 69 191 0.0 1.0 0.00 0.01 0.01 93 1020.3
20260831182003 69 168 0.0 0.0 0.00 0.01 0.01 93 1020.6
20260831181453 69 133 0.0 1.0 0.00 0.01 0.01 93 1020.3
20260831180953 69 176 3.0 5.0 0.00 0.01 0.01 92 1020.6
20260831180447 69 183 1.0 1.0 0.00 0.01 0.01 92 1020.3
20260831175946 69 173 1.0 1.0 0.00 0.01 0.01 93 1020.3
20260831175443 69 162 0.0 1.0 0.00 0.01 0.01 94 1020.3
20260831174938 69 163 0.0 0.0 0.00 0.01 0.01 94 1020.6
20260831174434 69 181 0.0 1.0 0.00 0.01 0.01 94 1021.0
20260831173933 69 159 0.0 0.0 0.00 0.01 0.01 94 1021.0
20260831173432 69 164 0.0 0.0 0.00 0.01 0.01 94 1021.0
20260831172928 69 167 0.0 0.0 0.00 0.01 0.01 93 1021.0
20260831172424 69 167 1.0 1.0 0.00 0.01 0.01 93 1021.0
20260831171923 69 169 1.0 1.0 0.00 0.01 0.01 93 1021.0
20260831171420 70 166 0.0 0.0 0.00 0.01 0.01 94 1021.3
20260831170916 70 182 1.0 2.0 0.00 0.01 0.01 93 1021.0
20260831170412 70 189 1.0 1.0 0.00 0.01 0.01 93 1021.3
20260831165908 70 175 0.0 0.0 0.00 0.01 0.01 93 1021.0
20260831165404 70 156 0.0 1.0 0.00 0.01 0.01 93 1021.3
20260831164901 70 154 1.0 1.0 0.00 0.01 0.01 93 1021.3
20260831164356 70 165 1.0 1.0 0.00 0.01 0.01 92 1021.3
20260831163852 70 153 1.0 2.0 0.00 0.01 0.01 92 1021.3
20260831163347 70 162 0.0 1.0 0.00 0.01 0.01 93 1021.3
20260831162845 70 164 0.0 0.0 0.00 0.01 0.01 92 1021.3
20260831162341 70 177 2.0 2.0 0.00 0.01 0.01 92 1021.3
20260831161839 70 121 0.0 1.0 0.00 0.01 0.01 92 1021.3
20260831161331 70 182 2.0 2.0 0.00 0.01 0.01 92 1021.3
20260831160826 70 164 1.0 1.0 0.00 0.01 0.01 92 1021.7
20260831160325 70 155 1.0 2.0 0.00 0.01 0.01 93 1021.7
20260831155821 70 172 1.0 1.0 0.00 0.01 0.01 93 1021.3
20260831155320 70 161 3.0 3.0 0.00 0.01 0.01 92 1021.7
20260831154816 70 167 0.0 1.0 0.00 0.01 0.01 93 1021.3
20260831154313 70 197 3.0 3.0 0.00 0.01 0.01 93 1021.3
20260831153811 71 180 1.0 1.0 0.05 0.01 0.01 93 1021.7
20260831153307 70 150 0.0 1.0 0.05 0.01 0.01 94 1021.7
20260831152803 70 168 1.0 1.0 0.00 0.00 0.00 93 1021.3
20260831152258 70 179 2.0 2.0 0.00 0.00 0.00 93 1021.7
20260831151754 69 164 1.0 1.0 0.00 0.00 0.00 93 1021.7
20260831151252 69 179 1.0 1.0 0.00 0.00 0.00 93 1021.7
20260831150748 69 161 0.0 0.0 0.00 0.00 0.00 92 1021.7
20260831150243 69 164 0.0 0.0 0.00 0.00 0.00 92 1021.7
20260831145742 70 191 1.0 2.0 0.00 0.00 0.00 91 1021.7
20260831145239 70 161 0.0 0.0 0.00 0.00 0.00 91 1021.7
20260831144734 70 161 0.0 1.0 0.00 0.00 0.00 91 1021.7
20260831144230 70 160 0.0 1.0 0.00 0.00 0.00 92 1022.1
20260831143730 69 161 0.0 0.0 0.00 0.00 0.00 92 1021.7
20260831143225 69 162 0.0 0.0 0.00 0.00 0.00 93 1021.7
20260831142721 69 164 1.0 1.0 0.00 0.00 0.00 93 1021.3
20260831142216 69 184 2.0 2.0 0.00 0.00 0.00 93 1021.0
20260831141715 69 158 3.0 3.0 0.00 0.00 0.00 93 1021.3
20260831141210 69 171 1.0 1.0 0.00 0.00 0.00 94 1021.3
20260831140710 68 162 0.0 0.0 0.00 0.00 0.00 95 1021.3
20260831140205 68 168 1.0 2.0 0.00 0.00 0.00 96 1021.3
20260831135703 68 179 1.0 1.0 0.00 0.00 0.00 96 1021.3
20260831135158 68 162 0.0 0.0 0.00 0.00 0.00 97 1021.7
20260831134654 68 161 0.0 0.0 0.00 0.00 0.00 98 1021.3
20260831134144 67 156 0.0 0.0 0.00 0.00 0.00 98 1021.7
20260831133643 67 160 0.0 1.0 0.00 0.00 0.00 98 1021.3
20260831133138 67 155 0.0 0.0 0.00 0.00 0.00 99 1021.7
20260831132634 66 187 0.0 1.0 0.00 0.00 0.00 99 1021.3
20260831132133 66 163 0.0 0.0 0.00 0.00 0.00 99 1021.3
20260831131628 66 174 0.0 0.0 0.00 0.00 0.00 99 1021.3
20260831131125 66 163 0.0 0.0 0.00 0.00 0.00 99 1021.3
20260831130619 65 160 0.0 0.0 0.00 0.00 0.00 99 1021.3
20260831130115 65 167 0.0 0.0 0.00 0.00 0.00 99 1021.7
20260831125612 65 160 0.0 0.0 0.00 0.00 0.00 99 1021.7
20260831125108 64 164 0.0 0.0 0.00 0.00 0.00 99 1021.7
20260831124605 64 169 0.0 0.0 0.00 0.00 0.00 99 1021.7
20260831124100 64 167 0.0 0.0 0.00 0.00 0.00 99 1021.3
20260831123559 64 167 0.0 0.0 0.00 0.00 0.00 99 1021.3
20260831123054 64 163 0.0 0.0 0.00 0.00 0.00 99 1021.7
20260831122549 64 161 0.0 0.0 0.00 0.00 0.00 99 1021.7
20260831122045 63 162 0.0 0.0 0.00 0.00 0.00 99 1022.1
20260831121544 63 161 0.0 0.0 0.00 0.00 0.00 99 1021.7
20260831121040 63 158 0.0 0.0 0.00 0.00 0.00 99 1022.1
20260831120540 63 161 0.0 0.0 0.00 0.00 0.00 99 1021.7
20260831120036 63 158 0.0 0.0 0.00 0.00 0.00 99 1022.1
20260831115531 63 162 0.0 0.0 0.00 0.00 0.00 99 1022.1
20260831115027 63 162 0.0 0.0 0.00 0.00 0.00 99 1022.1
20260831114525 63 158 0.0 0.0 0.00 0.00 0.00 99 1022.1
20260831114021 63 158 0.0 0.0 0.00 0.00 0.00 99 1022.1
20260831113520 63 159 0.0 0.0 0.00 0.00 0.00 99 1022.1
20260831113016 63 159 0.0 0.0 0.00 0.00 0.00 99 1022.1
20260831112515 63 161 0.0 0.0 0.00 0.00 0.00 99 1022.1
20260831112010 63 158 0.0 0.0 0.00 0.00 0.00 99 1022.1
20260831111506 63 157 0.0 0.0 0.00 0.00 0.00 99 1021.7
20260831111002 63 160 0.0 0.0 0.00 0.00 0.00 99 1021.7
20260831110502 63 158 0.0 0.0 0.00 0.00 0.00 99 1021.7
20260831110001 63 159 0.0 0.0 0.00 0.00 0.00 99 1022.1
20260831105456 63 158 0.0 0.0 0.00 0.00 0.00 99 1021.7